Glencoe, MN

8:48 PM CST on December 15, 2019 (GMT -0600)
Glencoe Municipal

Weather History for KGYL - October, 2019

Change the Weather History Date:

Sunday, October 27, 2019

  Actual Average (WUND) Record (WUND)
Temperature  
Mean Temperature 38 °F -  
Max Temperature 45 °F - - (-1)
Min Temperature 32 °F - - (-1)
Degree Days  
Heating Degree Days 26    
Moisture  
Dew Point 32 °F    
Average Humidity 76    
Maximum Humidity 91    
Minimum Humidity 63    
Precipitation  
Precipitation 0.00 in - - ()
Sea Level Pressure  
Sea Level Pressure 29.92 in    
Wind  
Wind Speed 8 mph (WNW)    
Max Wind Speed 18 mph    
Max Gust Speed 23 mph    
Visibility 10 miles    
Events Rain    
Averages and records for this station are not official NWS values.
T = Trace of Precipitation, MM = Missing Value Source: NWS Daily Summary

Daily Weather History Graph

Daily Weather History Graph

Search for Another Location

Airport or City:

Astronomy

Oct. 27, 2019 Rise Set
Actual Time 7:47 AM CDT 6:12 PM CDT
Civil Twilight 7:17 AM CDT 6:42 PM CDT
Nautical Twilight 6:42 AM CDT 7:16 PM CDT
Astronomical Twilight 6:08 AM CDT 7:50 PM CDT
Moon 6:52 AM CDT (10/27) 6:25 PM CDT (10/27)
Length of Visible Light 11h 25m
Length of Day
10h 25m
Waning Crescent, 0% of the Moon is Illuminated
Oct 27
Waning Crescent
Oct 27
New
Nov 4
First Quarter
Nov 12
Full
Nov 19
Last Quarter

Hourly Weather History & Observations

Time (CDT) Temp. Windchill Dew Point Humidity Pressure Visibility Wind Dir Wind Speed Gust Speed Precip Events Conditions
12:15 AM 37.0 °F 34.5 °F 29.8 °F 75% 29.69 in 10.0 mi SE 3.5 mph - N/A   Clear
12:16 AM 37.0 °F 34.5 °F 29.8 °F 75% 29.69 in 10.0 mi SE 3.5 mph - N/A   Clear
12:39 AM 36.9 °F - 29.8 °F 76% 29.68 in 10.0 mi Calm Calm - N/A   Clear
12:56 AM 36.1 °F - 29.8 °F 78% 29.68 in 10.0 mi Calm Calm - N/A   Clear
1:15 AM 36.1 °F - 30.0 °F 78% 29.68 in 10.0 mi Calm Calm - N/A   Clear
1:16 AM 36.0 °F - 30.0 °F 79% 29.68 in 10.0 mi Calm Calm - N/A   Clear
1:38 AM 35.8 °F - 30.4 °F 81% 29.68 in 10.0 mi Calm Calm - N/A   Clear
1:55 AM 33.4 °F - 30.7 °F 90% 29.68 in 10.0 mi Calm Calm - N/A   Clear
1:56 AM 33.3 °F - 30.7 °F 90% 29.68 in 10.0 mi Calm Calm - N/A   Clear
2:15 AM 33.3 °F - 30.9 °F 91% 29.69 in 10.0 mi Calm Calm - N/A   Clear
2:38 AM 33.8 °F - 30.9 °F 89% 29.69 in 10.0 mi Calm Calm - N/A   Clear
2:56 AM 33.1 °F 28.7 °F 30.6 °F 90% 29.72 in 10.0 mi WNW 4.6 mph - N/A   Clear
3:15 AM 32.7 °F 28.3 °F 30.4 °F 91% 29.73 in 10.0 mi West 4.6 mph - N/A   Clear
3:39 AM 34.3 °F 28.4 °F 30.2 °F 85% 29.73 in 10.0 mi West 6.9 mph - N/A   Clear
3:57 AM 36.5 °F 28.7 °F 33.1 °F 87% 29.75 in 10.0 mi West 11.5 mph - N/A   Clear
4:15 AM 38.5 °F 31.1 °F 35.8 °F 90% 29.77 in 10.0 mi West 11.5 mph 18.4 mph N/A   Scattered Clouds
4:16 AM 38.5 °F 31.6 °F 35.8 °F 90% 29.77 in 10.0 mi West 10.4 mph 18.4 mph N/A   Scattered Clouds
4:38 AM 39.9 °F 32.9 °F 36.5 °F 88% 29.78 in 10.0 mi WNW 11.5 mph 17.3 mph N/A   Scattered Clouds
4:55 AM 39.9 °F 33.9 °F 36.5 °F 88% 29.79 in 10.0 mi WNW 9.2 mph - N/A   Scattered Clouds
5:15 AM 40.8 °F 34.1 °F 36.7 °F 85% 29.78 in 10.0 mi WNW 11.5 mph 16.1 mph N/A   Scattered Clouds
5:37 AM 41.0 °F 33.9 °F 36.5 °F 84% 29.80 in 10.0 mi WNW 12.7 mph 17.3 mph N/A   Scattered Clouds
5:55 AM 41.4 °F 35.2 °F 36.5 °F 83% 29.80 in 10.0 mi NW 10.4 mph 17.3 mph N/A   Scattered Clouds
5:56 AM 41.4 °F 35.7 °F 36.5 °F 83% 29.80 in 10.0 mi NW 9.2 mph 17.3 mph N/A   Scattered Clouds
6:15 AM 42.3 °F 35.1 °F 36.7 °F 81% 29.82 in 10.0 mi WNW 13.8 mph - N/A   Overcast
6:19 AM 42.4 °F 35.3 °F 36.5 °F 79% 29.82 in 10.0 mi WNW 13.8 mph - N/A   Overcast
6:36 AM 42.4 °F 36.5 °F 36.5 °F 79% 29.81 in 10.0 mi NW 10.4 mph - N/A   Overcast
6:55 AM 42.8 °F 37.5 °F 36.1 °F 77% 29.81 in 10.0 mi NW 9.2 mph 17.3 mph N/A   Overcast
6:56 AM 42.6 °F 37.8 °F 36.1 °F 78% 29.81 in 10.0 mi WNW 8.1 mph 17.3 mph N/A   Overcast
7:18 AM 42.3 °F 36.3 °F 35.6 °F 77% 29.82 in 10.0 mi NW 10.4 mph 20.7 mph N/A   Overcast
7:35 AM 41.9 °F 34.3 °F 35.1 °F 77% 29.83 in 10.0 mi NW 15.0 mph 20.7 mph N/A   Overcast
7:55 AM 41.9 °F 35.0 °F 34.7 °F 76% 29.85 in 10.0 mi NW 12.7 mph 17.3 mph N/A   Overcast
7:59 AM 41.9 °F 35.9 °F 34.7 °F 76% 29.85 in 10.0 mi NW 10.4 mph 17.3 mph N/A   Overcast
8:16 AM 41.9 °F 34.6 °F 34.7 °F 76% 29.86 in 10.0 mi NW 13.8 mph - N/A   Overcast
8:35 AM 41.5 °F 34.6 °F 33.8 °F 74% 29.88 in 10.0 mi NW 12.7 mph 17.3 mph N/A   Overcast
8:36 AM 41.5 °F 34.6 °F 33.8 °F 74% 29.88 in 10.0 mi NW 12.7 mph 17.3 mph N/A   Overcast
8:58 AM 41.9 °F 35.4 °F 33.6 °F 72% 29.91 in 10.0 mi WNW 11.5 mph 18.4 mph N/A   Overcast
9:16 AM 41.9 °F 35.9 °F 33.6 °F 72% 29.91 in 10.0 mi NW 10.4 mph 18.4 mph N/A   Overcast
9:35 AM 41.9 °F 35.9 °F 33.8 °F 73% 29.93 in 10.0 mi NW 10.4 mph 19.6 mph N/A   Overcast
9:40 AM 41.9 °F 36.9 °F 33.8 °F 73% 29.92 in 10.0 mi NW 8.1 mph 19.6 mph N/A   Overcast
9:57 AM 41.9 °F 34.6 °F 34.3 °F 75% 29.92 in 10.0 mi NW 13.8 mph 19.6 mph N/A   Overcast
10:15 AM 42.4 °F 34.7 °F 34.7 °F 74% 29.92 in 10.0 mi NW 16.1 mph 20.7 mph N/A   Overcast
10:16 AM 42.6 °F 35.2 °F 34.7 °F 74% 29.92 in 10.0 mi NW 15.0 mph 20.7 mph N/A   Overcast
10:35 AM 43.0 °F 37.2 °F 34.3 °F 72% 29.94 in 10.0 mi NW 10.4 mph 21.9 mph N/A   Mostly Cloudy
10:36 AM 43.2 °F 37.4 °F 34.5 °F 72% 29.94 in 10.0 mi NW 10.4 mph 20.7 mph N/A   Mostly Cloudy
10:58 AM 42.8 °F 36.2 °F 34.2 °F 72% 29.94 in 10.0 mi NW 12.7 mph 19.6 mph N/A   Mostly Cloudy
11:15 AM 43.7 °F 36.0 °F 32.7 °F 65% 29.94 in 10.0 mi NW 17.3 mph 21.9 mph N/A   Scattered Clouds
11:16 AM 43.7 °F 35.7 °F 32.5 °F 65% 29.94 in 10.0 mi NW 18.4 mph 21.9 mph N/A   Scattered Clouds
11:35 AM 45.0 °F 38.9 °F 32.9 °F 63% 29.94 in 10.0 mi NW 12.7 mph 20.7 mph N/A   Scattered Clouds
11:36 AM 45.1 °F 39.1 °F 33.1 °F 63% 29.94 in 10.0 mi NW 12.7 mph 20.7 mph N/A   Scattered Clouds
11:57 AM 44.8 °F 37.7 °F 32.9 °F 63% 29.95 in 10.0 mi NW 16.1 mph 21.9 mph N/A   Mostly Cloudy
12:15 PM 43.5 °F 36.7 °F 32.2 °F 64% 29.95 in 10.0 mi NW 13.8 mph 20.7 mph N/A   Overcast
12:35 PM 42.6 °F 36.3 °F 32.4 °F 67% 29.97 in 10.0 mi NW 11.5 mph 17.3 mph N/A   Overcast
12:55 PM 42.8 °F 36.2 °F 33.4 °F 70% 29.96 in 10.0 mi WNW 12.7 mph 18.4 mph N/A   Overcast
1:00 PM 43.0 °F 36.0 °F 33.1 °F 68% 29.97 in 10.0 mi NNW 13.8 mph 18.4 mph N/A   Overcast
1:16 PM 42.8 °F 35.4 °F 32.9 °F 68% 29.97 in 10.0 mi WNW 15.0 mph 18.4 mph N/A   Mostly Cloudy
1:35 PM 42.8 °F 37.5 °F 33.8 °F 70% 29.98 in 10.0 mi WNW 9.2 mph - N/A   Overcast
1:59 PM 40.6 °F 33.4 °F 34.5 °F 79% 29.98 in 7.0 mi NW 12.7 mph 23.0 mph N/A Rain Light Rain
2:16 PM 41.5 °F 35.0 °F 34.7 °F 77% 29.98 in 10.0 mi NW 11.5 mph 19.6 mph N/A   Overcast
2:35 PM 41.4 °F 35.2 °F 34.7 °F 77% 29.98 in 10.0 mi WNW 10.4 mph - N/A   Overcast
2:36 PM 41.4 °F 35.7 °F 34.7 °F 77% 29.98 in 10.0 mi WNW 9.2 mph - N/A   Overcast
2:55 PM 41.4 °F 35.2 °F 34.2 °F 76% 29.99 in 10.0 mi WNW 10.4 mph - N/A   Overcast
2:59 PM 41.2 °F 36.6 °F 34.2 °F 76% 29.99 in 10.0 mi WNW 6.9 mph - N/A   Overcast
3:15 PM 41.2 °F 35.0 °F 34.3 °F 77% 29.99 in 10.0 mi WNW 10.4 mph - N/A   Overcast
3:35 PM 41.2 °F 36.0 °F 34.5 °F 77% 29.99 in 10.0 mi WNW 8.1 mph 16.1 mph N/A   Overcast
3:36 PM 41.2 °F 36.0 °F 34.7 °F 78% 29.99 in 10.0 mi WNW 8.1 mph 16.1 mph N/A   Overcast
3:55 PM 41.5 °F 36.4 °F 33.8 °F 74% 30.00 in 10.0 mi WNW 8.1 mph - N/A   Overcast
4:37 PM 41.4 °F 36.8 °F 32.9 °F 72% 30.00 in 10.0 mi West 6.9 mph - N/A   Overcast
4:55 PM 41.2 °F 34.5 °F 32.0 °F 70% 30.00 in 10.0 mi WNW 11.5 mph 17.3 mph N/A   Overcast
4:56 PM 41.2 °F 35.0 °F 32.0 °F 70% 30.00 in 10.0 mi WNW 10.4 mph 16.1 mph N/A   Overcast
5:15 PM 40.5 °F 33.6 °F 32.2 °F 72% 30.01 in 10.0 mi WNW 11.5 mph - N/A   Overcast
5:36 PM 40.1 °F 34.7 °F 32.4 °F 74% 30.01 in 10.0 mi West 8.1 mph - N/A   Overcast
5:55 PM 39.7 °F 33.7 °F 32.0 °F 74% 30.01 in 10.0 mi WNW 9.2 mph - N/A   Overcast
5:56 PM 39.6 °F 34.0 °F 32.0 °F 74% 30.01 in 10.0 mi WNW 8.1 mph - N/A   Overcast
6:15 PM 39.2 °F 31.6 °F 31.8 °F 75% 30.01 in 10.0 mi West 12.7 mph - N/A   Overcast
6:18 PM 39.2 °F 32.5 °F 31.8 °F 75% 30.01 in 10.0 mi WNW 10.4 mph - N/A   Overcast
6:37 PM 39.2 °F 32.0 °F 31.5 °F 74% 30.02 in 10.0 mi West 11.5 mph 16.1 mph N/A   Overcast
6:55 PM 38.7 °F 32.4 °F 31.3 °F 75% 30.02 in 10.0 mi WNW 9.2 mph 16.1 mph N/A   Overcast
7:15 PM 38.3 °F 30.9 °F 30.2 °F 73% 30.03 in 10.0 mi WNW 11.5 mph - N/A   Overcast
7:16 PM 38.3 °F 31.4 °F 30.2 °F 73% 30.03 in 10.0 mi WNW 10.4 mph - N/A   Overcast
7:37 PM 37.9 °F 31.5 °F 30.2 °F 74% 30.03 in 10.0 mi WNW 9.2 mph - N/A   Overcast
7:55 PM 37.8 °F 31.3 °F 29.7 °F 73% 30.04 in 10.0 mi WNW 9.2 mph - N/A   Overcast
7:56 PM 37.8 °F 30.7 °F 29.7 °F 73% 30.04 in 10.0 mi WNW 10.4 mph - N/A   Overcast
8:20 PM 37.6 °F 31.0 °F 29.3 °F 72% 30.04 in 10.0 mi WNW 9.2 mph - N/A   Overcast
8:55 PM 37.0 °F 31.0 °F 27.5 °F 68% 30.06 in 10.0 mi WNW 8.1 mph 18.4 mph N/A   Overcast
8:56 PM 37.0 °F 30.4 °F 27.5 °F 68% 30.05 in 10.0 mi WNW 9.2 mph 18.4 mph N/A   Overcast
9:15 PM 36.5 °F 29.7 °F 27.3 °F 69% 30.07 in 10.0 mi West 9.2 mph - N/A   Overcast
9:16 PM 36.5 °F 28.7 °F 27.3 °F 69% 30.07 in 10.0 mi West 11.5 mph 18.4 mph N/A   Overcast
9:39 PM 36.0 °F 28.0 °F 26.4 °F 68% 30.08 in 10.0 mi West 11.5 mph - N/A   Overcast
9:55 PM 35.4 °F 27.3 °F 25.7 °F 68% 30.09 in 10.0 mi West 11.5 mph 16.1 mph N/A   Overcast
10:15 PM 34.5 °F 27.9 °F 25.7 °F 70% 30.09 in 10.0 mi West 8.1 mph - N/A   Overcast
10:16 PM 34.5 °F 27.3 °F 25.7 °F 70% 30.09 in 10.0 mi West 9.2 mph - N/A   Overcast
10:37 PM 33.3 °F 26.4 °F 25.7 °F 74% 30.09 in 10.0 mi West 8.1 mph - N/A   Mostly Cloudy
10:55 PM 32.7 °F 25.7 °F 25.7 °F 75% 30.09 in 10.0 mi West 8.1 mph - N/A   Scattered Clouds
10:56 PM 32.7 °F 25.7 °F 25.7 °F 75% 30.09 in 10.0 mi West 8.1 mph - N/A   Scattered Clouds
11:15 PM 32.0 °F 24.2 °F 26.1 °F 79% 30.09 in 10.0 mi West 9.2 mph - N/A   Clear
11:20 PM 32.0 °F 24.2 °F 25.9 °F 78% 30.10 in 10.0 mi West 9.2 mph - N/A   Clear
11:37 PM 32.0 °F 24.2 °F 25.3 °F 76% 30.10 in 10.0 mi West 9.2 mph - N/A   Clear
11:55 PM 32.0 °F 23.6 °F 23.9 °F 72% 30.09 in 10.0 mi West 10.4 mph - N/A   Clear
11:56 PM 32.0 °F 24.2 °F 23.7 °F 71% 30.09 in 10.0 mi West 9.2 mph - N/A   Clear